Flag for France Weather past 2 weeks in Marigot, Saint Martin, France

88 °F

Scattered clouds.

Feels Like: 100 °F
Forecast: 82 / 88 °F
Wind: 12 mph from Southeast

Location: Juliana Airport - Saint Maarten

Current Time: Oct 9, 2015 at 12:28:35 PM

Latest Report: Oct 9, 2015 at 12:00 PM

Visibility: N/A

Pressure: 30.01 "Hg

Humidity: 70%

Dew point: 77 °F

Location of MarigotLocation

Historic Weather in Marigot — Graph


Marigot temperature yesterday

Maximum temperature yesterday: 86 °F (at 11:00 AM)
Minimum temperature yesterday: 79 °F (at 7:00 PM)
Average temperature yesterday: 82 °F

Past Weeks' High & Low Weather Summary

High90 °F (Sep 28, 10:00 AM)89% (Oct 8, 3:00 AM)30.04 "Hg (Oct 8, 3:00 AM)
Low79 °F (Oct 8, 7:00 PM)52% (Sep 28, 10:00 AM)29.77 "Hg (Oct 1, 2:00 AM)
Average85 °F73%29.91 "Hg
* Reported Sep 24 11:00 AM — Oct 9 11:00 AM, Marigot, Weather by CustomWeather, © 2015

Note: Actual official high and low records may vary slightly from our data, if they occured in-between our weather recording intervals... More about our weather records


Marigot weather history for previous 24 hours

Time TempWeatherWind HumidityBarometerVisibility
11:00 AM
Fri, Oct 9
88 °FPassing clouds.13 mph66%30.04 "HgN/A
10:00 AM86 °FPassing clouds.13 mph75%30.04 "HgN/A
9:00 AM86 °FScattered showers. Scattered clouds.9 mph75%30.04 "HgN/A
8:00 AM84 °FScattered showers. Scattered clouds.9 mph79%30.01 "HgN/A
7:00 AM82 °FPassing clouds.7 mph84%30.01 "HgN/A
6:00 AM82 °FPassing clouds.14 mph84%29.98 "HgN/A
5:00 AM82 °FPassing clouds.8 mph84%29.95 "HgN/A
2:00 AM81 °FSprinkles. Passing clouds.5 mph79%29.98 "HgN/A
1:00 AM79 °FPassing clouds.5 mph79%29.98 "HgN/A
12:00 AM81 °FPassing clouds.3 mph74%30.01 "HgN/A
11:00 PM
Thu, Oct 8
82 °FPassing clouds.2 mph70%30.01 "HgN/A
10:00 PM82 °FPassing clouds.6 mph62%30.01 "HgN/A
9:00 PM81 °FLight rain. Passing clouds.14 mph62%30.04 "HgN/A
8:00 PM79 °FRain. Passing clouds.16 mph84%30.01 "HgN/A
7:00 PM79 °FRain. Passing clouds.16 mph89%30.01 "Hg6 mi
6:00 PM81 °FThunderstorms. Passing clouds.10 mph84%29.95 "Hg6 mi
5:00 PM81 °FLight rain. Broken clouds.13 mph84%29.95 "HgN/A
4:00 PM82 °FLight rain. Scattered clouds.1 mph79%29.92 "HgN/A
3:00 PM81 °FLight rain. Scattered clouds.3 mph84%29.92 "HgN/A
2:00 PM81 °FLight rain. Cloudy.7 mph84%29.95 "HgN/A
1:00 PM81 °FThunderstorms. Scattered clouds.14 mph79%29.95 "HgN/A
12:00 PM82 °FSprinkles. Partly sunny.20 mph84%29.98 "HgN/A
Weather by CustomWeather, © 2015

See weather overviewHow to use our weather pages